User: anonymous   Login
Location: Aiyekoto
(8.4333°N, 4.3667°E)
Time: 11:15:04
(UTC+00:00)
Language:

PAYLOAD A - Orbit

View from above orbital plane
View from above orbital plane
View from above satellite
View from above satellite

Ground track
Ground track

The orbit data is extracted from the following two-line orbital elements,

1 27840U 03031A   21137.88754167 -.00000004  00000-0  12404-4 0  9998
2 27840  98.3708 106.5786 0099031 134.1378 226.8008 14.38959184939065
Epoch (UTC): 17 May 2021 21:18:03
Eccentricity: 0.0099031
inclination: 98.3708°
perigee height: 691 km
apogee height: 832 km
right ascension of ascending node: 106.5786°
argument of perigee: 134.1378°
revolutions per day: 14.38959184
mean anomaly at epoch: 226.8008°
orbit number at epoch: 93906

The dashed part of the orbit path shows where the satellite is in the earth's shadow,  

DLR